www.pogodaiklimat.ru
ПОГОДА в Шахруде
Время
(UTC), дата
09 10.10
12 10.10
15 10.10
18 10.10
21 10.10
00 11.10
03 11.10
06 11.10
09 11.10
12 11.10
15 11.10
18 11.10
21 11.10
00 12.10
03 12.10
06 12.10
09 12.10
12 12.10
15 12.10
18 12.10
21 12.10
00 13.10
03 13.10
06 13.10
09 13.10
12 13.10
15 13.10
18 13.10
21 13.10
00 14.10
03 14.10
06 14.10
09 14.10
12 14.10
15 14.10
18 14.10
21 14.10
00 15.10
03 15.10
06 15.10
09 15.10
12 15.10
15 15.10
18 15.10
21 15.10
00 16.10
03 16.10
06 16.10
09 16.10
12 16.10
15 16.10
18 16.10
21 16.10
00 17.10
03 17.10
06 17.10
Ветер
(напр.,м/с)
Видим. Явления Облачность Т
(С)
Тd
(С)
f
(%)
Тe
(С)
Тes
(С)
Комфортность P
(гПа)
Po
(гПа)
Тmin
(С)
Tmax
(С)
R
(мм)
R24
(мм)
S
(см)
СВ 2 15 км 1/1 900 м
[Sc]
+23.8 +5.7 31 +24 +33 комфорт 1017.7 874.9 666
СВ 5 15 км 3/3 1050 м
[Sc]
+23.4 +5.0 30 +23 +25 комфорт 1018.5 874.6
СВ 3 15 км ясно +18.4 +7.7 50 +19 +19 тепло 1020.3 875.1 +24.8
СВ 3 15 км ясно +16.4 +7.8 57 +16 +16 тепло 1019.3 875.5
СВ 3 15 км ясно +14.2 +8.6 69 +13 +13 тепло 1018.8 875.2
штиль 0 15 км ясно +13.0 +8.1 72 +13 +13 тепло 1018.2 874.4
СВ 2 15 км ясно +10.6 +6.2 74 +9 +9 тепло 1020.9 874.9 +9.4
штиль 0 15 км ясно +19.2 +6.9 45 +20 +29 тепло 1019.5 875.3
ЮЗ 3 15 км ясно +23.4 +5.6 32 +24 +33 комфорт 1017.4 873.9 666
ЮЗ 2 15 км ясно +25.4 +3.8 25 +25 +27 комфорт 1015.6 872.4
СВ 3 15 км ясно +21.6 +6.5 38 +22 +22 комфорт 1016.1 871.6 +25.6
штиль 0 15 км ясно +19.0 +5.7 42 +19 +19 тепло 1014.7 871.6
СЗ 2 15 км ясно +16.8 +4.6 44 +17 +17 тепло 1013.1 870.7
штиль 0 15 км ясно +12.6 +3.4 53 +12 +12 тепло 1013.1 870.1
штиль 0 15 км ясно +13.0 +4.5 56 +13 +13 тепло 1014.8 870.9 +12.0
штиль 0 15 км ясно +20.4 +5.2 37 +21 +30 комфорт 1014.7 871.9
В 3 15 км ясно +25.4 +5.0 27 +25 +33 комфорт 1012.2 870.4 666
В 2 15 км ясно +27.0 +2.5 21 +25 +28 комфорт 1012.1 869.7
С 4 15 км ясно +21.4 +4.0 32 +22 +22 комфорт 1015.0 871.0 +27.6
СВ 3 15 км ясно +18.0 +6.7 48 +18 +18 тепло 1015.3 872.2
СВ 2 15 км ясно +15.4 +8.4 63 +15 +15 тепло 1015.3 872.8
СВ 3 15 км ясно +13.8 +9.4 75 +13 +13 тепло 1015.2 872.8
штиль 0 15 км 1/1 1050 м
[Sc]
+12.8 +8.3 74 +12 +12 тепло 1018.3 874.0 +12.4 666
штиль 0 15 км 6/4 1050 м
[Cu med, cong Ci fib]
+18.6 +9.3 55 +19 +24 тепло 1019.9 875.9
СЗ 5 15 км 8/8 1050 м
[Cu med, cong]
+22.6 +5.4 33 +23 +24 комфорт 1018.5 874.9 666
СЗ 5 15 км 6/1 1050 м
[Sc Cs]
+19.6 +3.3 34 +20 +21 тепло 1020.4 875.4
СВ 2 15 км 3/3 1050 м
[Sc]
+16.8 +2.3 38 +17 +17 тепло 1022.1 875.9 +22.6 666
С 4 15 км ясно +12.4 +3.1 53 +11 +11 тепло 1024.2 878.1
СВ 8 15 км ясно +10.8 +0.3 48 +8 +8 тепло 1024.6 878.9
С 4 15 км 3/0
[Ci sp]
+9.2 -1.4 47 +7 +7 тепло 1025.9 878.9
С 3 15 км ясно +8.6 -6.9 33 +7 +7 тепло 1027.7 879.5 +8.0
СВ 3 15 км 3/0
[Ci sp]
+15.4 -13.3 13 +15 +20 тепло 1028.2 880.5
СВ 2 15 км ясно +19.6 -18.4 6 +20 +30 тепло 1025.8 878.9
СВ 4 15 км ясно +21.0 -15.1 8 +20 +22 тепло 1024.2 877.6
СВ 3 15 км ясно +16.8 -11.3 14 +17 +17 тепло 1025.7 877.8 +21.4
СЗ 2 15 км ясно +13.0 -7.0 24 +13 +13 тепло 1025.7 878.5
З 2 15 км ясно +9.8 -9.2 25 +9 +9 тепло 1024.9 878.1
СЗ 2 15 км 1/1 1000 м
[Sc]
+11.2 -12.6 18 +11 +11 тепло 1023.2 877.2
СВ 2 15 км 1/0
[Ci fib]
+10.8 -9.0 24 +10 +10 тепло 1024.4 877.3 +8.2 666
СВ 4 15 км 1/1 1000 м
[Sc Ci sp]
+17.0 -7.2 18 +17 +21 тепло 1024.3 877.7
В 2 15 км 4/1 1050 м
[Sc Ci sp]
+21.6 -5.2 16 +20 +29 тепло 1022.6 876.7 666
СВ 4 15 км 4/1 1050 м
[Sc Ci sp]
+23.4 -6.3 13 +21 +23 комфорт 1019.7 874.9
СВ 3 15 км 3/0
[Ci sp]
+18.8 -0.7 27 +19 +19 тепло 1020.1 874.1 +23.8
С 2 15 км ясно +15.0 -2.0 31 +15 +15 тепло 1019.9 874.5
штиль 0 15 км ясно +10.6 -4.8 34 +11 +11 тепло 1019.2 873.9
штиль 0 15 км ясно +11.0 -6.5 29 +11 +11 тепло 1017.6 873.0
штиль 0 15 км ясно +10.4 -6.8 29 +10 +10 тепло 1019.3 873.2 +9.2
штиль 0 15 км ясно +18.6 -3.4 22 +19 +27 тепло 1019.3 874.3
штиль 0 15 км ясно +22.4 -4.9 16 +21 +34 комфорт 1018.2 873.2
штиль 0 15 км ясно +24.2 -3.1 16 +22 +26 комфорт 1016.3 872.1
С 2 15 км ясно +18.2 -1.8 26 +19 +19 тепло 1019.1 873.0 +24.4
штиль 0 15 км ясно +14.4 -1.0 35 +14 +14 тепло 1018.6 873.6
С 2 15 км ясно +12.0 -1.6 39 +11 +11 тепло 1018.5 873.9
СЗ 2 15 км ясно +11.6 -5.3 30 +11 +11 тепло 1018.3 874.0
С 2 15 км ясно +10.4 -4.4 35 +10 +10 тепло 1021.5 875.0 +10.0
СВ 2 15 км ясно +18.6 -4.2 21 +19 +25 тепло 1021.2 875.8
Местоположение метеостанции Шахруд (Иран): широта 36.42 долгота 54.95 высота над уровнем моря 1345 м.
В архиве по умолчанию представлена погода в Шахруде за последнюю неделю. Архивные данные за месяц целиком и за предыдущие месяцы, начиная с января 2011 года, Вы можете получить, выбрав интересующий диапазон дат из раскрывающегося списка и нажав кнопку "Найти!".
*Определитесь, кто Вы:
Внимание! Время в таблицах - всемирное. Для получения местного времени необходимо прибавить поправку, которая равна 3.5 ч.
Смотрите также архив погоды в соседних городах и на ближайших метеорологических станциях:
Партнеры нашего сайта:      
Пояснения к столбцам:
  • Ветер - указаны скорость ветра в м/с - средняя за 10 мин, порывы в срок и между сроками (в фигурных скобках) и направление, откуда дует ветер: С - северный,
  • СВ - северо-восточный, В - восточный, ЮВ - юго-восточный, Ю - южный, ЮЗ - юго-западный, З - западный, СЗ - северо-западный.
  • Видимость - горизонтальная дальность видимости в метрах или километрах. При видимости от 1 до 10 км при отсутствии осадков обычно наблюдается дымка, при ухудшении видимости до 1 км и менее - туман. В сухую погоду видимость может ухудшаться дымом, пылью или мглою.
  • Явления - указаны атмосферные явления, наблюдавшиеся в срок или в последний час перед сроком; фигурными скобками обозначены явления, наблюдавшиеся между сроками (за 1-3 часа до срока); квадратными скобками обозначены град или гололедные отложения с указанием их диаметра в мм.
  • Облачность - указаны через наклонную черту общая и нижняя облачность в баллах и высота нижней границы облаков в метрах; квадратными скобками обозначены формы облаков: Ci - перистые, Cs - перисто-слоистые, Cc - перисто-кучевые, Ac - высококучевые, As - высокослоистые, Sc - слоисто-кучевые, Ns - слоисто-дождевые, Cu - кучевые, Cb - кучево-дождевые. Подробнее классификацию облаков см. в Атласе облаков (PDF).
  • T - Температура воздуха - температура, измеренная на высоте 2 м над землей.
  • Td - Температура точки росы - температура, при понижении до которой содержащийся в воздухе водяной пар достигнет насыщения.
  • f - Относительная влажность воздуха - влажноcть воздуха, измеренная на высоте 2 м над землей.
  • Te - Эффективная температура - температура, которую ощущает одетый по сезону человек в тени. Характеристика душности погоды. При расчете учитывается влияние влажности воздуха и скорости ветра на теплоощущения человека.
  • Tes - Эффективная температура на солнце - температура, которую ощущает человек, с поправкой на солнечный нагрев. Характеристика знойности погоды. Зависит от высоты солнца над горизонтом, облачности и скорости ветра. Ночью, в пасмурную погоду, а также при ветре 12 м/с и более поправка равна нулю.
  • P - Атмосферное давление - приведенное к уровню моря атмосферное давление.
  • Po - Атмосферное давление - измеренное на уровне метеостанции атмосферное давление.
  • Tmin - Минимальная температура - минимум температуры воздуха на высоте 2 м над землей.
  • Tmax - Максимальная температура - максимум температуры воздуха на высоте 2 м над землей.
  • R - Количество осадков - Количество выпавших осадков за период времени, мм. При наведении курсора мыши на число - период времени, за который выпало указанное количество осадков.
  • R24 - Количество осадков - Количество выпавших осадков за 24 часа, мм.
  • S - Снежный покров - Высота снежного покрова, см. При наведении курсора мыши на число - состояние снежного покрова и степень покрытия местности в баллах.